Saint Bonnet de Bellac- Haute Vienne - France
Donnes mto: dimanche, 22/07/2012
Date Horaire Temp. E. Hum. E. P.atmo. Pluie Vent Direction Direction Ensoleilleme Solaire P. de rose Temp au vent Rafales
22/07/2012 00:00 13,9 C 74 % 1023,2 hPa 0,0 mm 0,0 km/h (0 Bft) NE 45 0 min 0 W/m 9,3 C 13,9 C 0,0 km/h (0 Bft)
22/07/2012 00:10 13,8 C 75 % 1023,2 hPa 0,0 mm 0,0 km/h (0 Bft) NE 45 0 min 0 W/m 9,4 C 13,8 C 0,0 km/h (0 Bft)
22/07/2012 00:20 13,8 C 75 % 1023,3 hPa 0,0 mm 0,0 km/h (0 Bft) NE 45 0 min 0 W/m 9,4 C 13,8 C 0,0 km/h (0 Bft)
22/07/2012 00:30 13,8 C 75 % 1023,3 hPa 0,0 mm 0,7 km/h (0 Bft) E-SE 112 0 min 0 W/m 9,4 C 13,8 C 3,6 km/h (1 Bft)
22/07/2012 00:40 13,8 C 76 % 1023,3 hPa 0,0 mm 0,0 km/h (0 Bft) SE 135 0 min 0 W/m 9,6 C 13,8 C 0,0 km/h (0 Bft)
22/07/2012 00:50 13,9 C 75 % 1023,4 hPa 0,0 mm 0,0 km/h (0 Bft) N 360 0 min 0 W/m 9,5 C 13,9 C 0,0 km/h (0 Bft)
22/07/2012 01:00 13,8 C 76 % 1023,3 hPa 0,0 mm 0,0 km/h (0 Bft) E-SE 112 0 min 0 W/m 9,6 C 13,8 C 0,0 km/h (0 Bft)
22/07/2012 01:10 13,8 C 76 % 1023,4 hPa 0,0 mm 1,4 km/h (1 Bft) E-SE 112 0 min 0 W/m 9,6 C 13,8 C 3,6 km/h (1 Bft)
22/07/2012 01:20 13,8 C 77 % 1023,3 hPa 0,0 mm 0,7 km/h (0 Bft) E-SE 112 0 min 0 W/m 9,8 C 13,8 C 3,6 km/h (1 Bft)
22/07/2012 01:30 13,7 C 77 % 1023,4 hPa 0,0 mm 0,4 km/h (0 Bft) E 90 0 min 0 W/m 9,7 C 13,7 C 3,2 km/h (1 Bft)
22/07/2012 01:40 13,4 C 78 % 1023,5 hPa 0,0 mm 0,0 km/h (0 Bft) E 90 0 min 0 W/m 9,6 C 13,4 C 0,0 km/h (0 Bft)
22/07/2012 01:50 13,2 C 78 % 1023,4 hPa 0,0 mm 0,0 km/h (0 Bft) E 90 0 min 0 W/m 9,4 C 13,2 C 0,0 km/h (0 Bft)
22/07/2012 02:00 13,0 C 78 % 1023,3 hPa 0,0 mm 0,0 km/h (0 Bft) E 90 0 min 0 W/m 9,3 C 13,0 C 0,0 km/h (0 Bft)
22/07/2012 02:10 12,8 C 79 % 1023,5 hPa 0,0 mm 0,0 km/h (0 Bft) E 90 0 min 0 W/m 9,2 C 12,8 C 0,0 km/h (0 Bft)
22/07/2012 02:20 12,5 C 80 % 1023,5 hPa 0,0 mm 0,0 km/h (0 Bft) E 90 0 min 0 W/m 9,1 C 12,5 C 0,0 km/h (0 Bft)
22/07/2012 02:30 12,3 C 81 % 1023,5 hPa 0,0 mm 0,4 km/h (0 Bft) E-SE 112 0 min 0 W/m 9,1 C 12,3 C 0,4 km/h (0 Bft)
22/07/2012 02:40 12,3 C 82 % 1023,4 hPa 0,0 mm 0,0 km/h (0 Bft) E-SE 112 0 min 0 W/m 9,3 C 12,3 C 0,0 km/h (0 Bft)
22/07/2012 02:50 12,1 C 82 % 1023,3 hPa 0,0 mm 0,0 km/h (0 Bft) E-SE 112 0 min 0 W/m 9,1 C 12,1 C 0,0 km/h (0 Bft)
22/07/2012 03:02 11,9 C 83 % 1023,3 hPa 0,0 mm 0,0 km/h (0 Bft) E-SE 112 0 min 0 W/m 9,1 C 11,9 C 0,0 km/h (0 Bft)
22/07/2012 03:10 11,6 C 82 % 1023,3 hPa 0,0 mm 0,0 km/h (0 Bft) E-SE 112 0 min 0 W/m 8,6 C 11,6 C 0,0 km/h (0 Bft)
22/07/2012 03:20 11,4 C 83 % 1023,4 hPa 0,0 mm 0,0 km/h (0 Bft) E-NE 67 0 min 0 W/m 8,6 C 11,4 C 0,0 km/h (0 Bft)
22/07/2012 03:30 11,4 C 83 % 1023,3 hPa 0,0 mm 1,4 km/h (1 Bft) E 90 0 min 0 W/m 8,6 C 11,4 C 4,0 km/h (1 Bft)
22/07/2012 03:40 11,4 C 84 % 1023,2 hPa 0,0 mm 0,0 km/h (0 Bft) SE 135 0 min 0 W/m 8,8 C 11,4 C 0,0 km/h (0 Bft)
22/07/2012 03:50 11,3 C 85 % 1023,2 hPa 0,0 mm 0,4 km/h (0 Bft) SE 135 0 min 0 W/m 8,9 C 11,3 C 3,2 km/h (1 Bft)
22/07/2012 04:00 11,3 C 85 % 1023,2 hPa 0,0 mm 0,0 km/h (0 Bft) E-SE 112 0 min 0 W/m 8,9 C 11,3 C 0,0 km/h (0 Bft)
22/07/2012 04:10 11,1 C 86 % 1023,2 hPa 0,0 mm 0,0 km/h (0 Bft) E-SE 112 0 min 0 W/m 8,8 C 11,1 C 0,0 km/h (0 Bft)
22/07/2012 04:20 11,1 C 86 % 1023,4 hPa 0,0 mm 0,0 km/h (0 Bft) SE 135 0 min 0 W/m 8,8 C 11,1 C 0,0 km/h (0 Bft)
22/07/2012 04:30 11,0 C 86 % 1023,4 hPa 0,0 mm 0,0 km/h (0 Bft) E-SE 112 0 min 0 W/m 8,7 C 11,0 C 0,0 km/h (0 Bft)
22/07/2012 04:40 10,8 C 86 % 1023,5 hPa 0,0 mm 0,0 km/h (0 Bft) E-SE 112 0 min 0 W/m 8,6 C 10,8 C 0,0 km/h (0 Bft)
22/07/2012 04:50 10,6 C 86 % 1023,4 hPa 0,0 mm 0,0 km/h (0 Bft) E 90 0 min 0 W/m 8,4 C 10,6 C 0,0 km/h (0 Bft)
22/07/2012 05:00 10,4 C 86 % 1023,4 hPa 0,0 mm 0,0 km/h (0 Bft) E 90 0 min 0 W/m 8,2 C 10,4 C 0,0 km/h (0 Bft)
22/07/2012 05:10 10,3 C 86 % 1023,4 hPa 0,0 mm 0,0 km/h (0 Bft) E-NE 67 0 min 0 W/m 8,1 C 10,3 C 0,0 km/h (0 Bft)
22/07/2012 05:20 10,1 C 86 % 1023,6 hPa 0,0 mm 0,0 km/h (0 Bft) E-NE 67 0 min 0 W/m 7,9 C 10,1 C 0,0 km/h (0 Bft)
22/07/2012 05:30 10,0 C 87 % 1023,5 hPa 0,0 mm 0,0 km/h (0 Bft) E-NE 67 0 min 0 W/m 7,9 C 10,0 C 0,0 km/h (0 Bft)
22/07/2012 05:40 9,9 C 87 % 1023,6 hPa 0,0 mm 0,0 km/h (0 Bft) E-NE 67 0 min 0 W/m 7,8 C 9,9 C 0,0 km/h (0 Bft)
22/07/2012 05:50 9,7 C 87 % 1023,6 hPa 0,0 mm 0,0 km/h (0 Bft) E-NE 67 0 min 0 W/m 7,6 C 9,7 C 0,0 km/h (0 Bft)
22/07/2012 06:00 9,4 C 87 % 1023,6 hPa 0,0 mm 0,0 km/h (0 Bft) E-NE 67 0 min 0 W/m 7,3 C 9,4 C 0,0 km/h (0 Bft)
22/07/2012 06:10 9,3 C 87 % 1023,5 hPa 0,0 mm 0,0 km/h (0 Bft) E-NE 67 0 min 0 W/m 7,2 C 9,3 C 0,0 km/h (0 Bft)
22/07/2012 06:20 9,2 C 87 % 1023,6 hPa 0,0 mm 0,0 km/h (0 Bft) E-NE 67 0 min 0 W/m 7,2 C 9,2 C 0,0 km/h (0 Bft)
22/07/2012 06:30 9,3 C 88 % 1023,6 hPa 0,0 mm 2,2 km/h (1 Bft) E 90 0 min 0 W/m 7,4 C 9,3 C 2,9 km/h (1 Bft)
22/07/2012 06:40 9,7 C 88 % 1023,6 hPa 0,0 mm 2,5 km/h (1 Bft) E-SE 112 0 min 0 W/m 7,8 C 9,7 C 2,5 km/h (1 Bft)
22/07/2012 06:50 9,8 C 88 % 1023,6 hPa 0,0 mm 0,0 km/h (0 Bft) E-SE 112 0 min 0 W/m 7,9 C 9,8 C 0,0 km/h (0 Bft)
22/07/2012 07:00 9,8 C 88 % 1023,5 hPa 0,0 mm 0,0 km/h (0 Bft) E 90 0 min 0 W/m 7,9 C 9,8 C 0,0 km/h (0 Bft)
22/07/2012 07:10 9,8 C 88 % 1023,5 hPa 0,0 mm 0,0 km/h (0 Bft) E-NE 67 0 min 0 W/m 7,9 C 9,8 C 0,0 km/h (0 Bft)
22/07/2012 07:20 9,8 C 89 % 1023,5 hPa 0,0 mm 0,0 km/h (0 Bft) E 90 0 min 0 W/m 8,1 C 9,8 C 0,0 km/h (0 Bft)
22/07/2012 07:30 9,9 C 89 % 1023,6 hPa 0,0 mm 0,0 km/h (0 Bft) E-SE 112 0 min 0 W/m 8,2 C 9,9 C 0,0 km/h (0 Bft)
22/07/2012 07:40 10,0 C 89 % 1023,8 hPa 0,0 mm 0,0 km/h (0 Bft) SE 135 0 min 0 W/m 8,3 C 10,0 C 0,0 km/h (0 Bft)
22/07/2012 07:50 10,2 C 89 % 1023,9 hPa 0,0 mm 0,4 km/h (0 Bft) E-SE 112 0 min 0 W/m 8,5 C 10,2 C 3,6 km/h (1 Bft)
22/07/2012 08:00 10,4 C 89 % 1024,0 hPa 0,0 mm 0,7 km/h (0 Bft) E-SE 112 0 min 0 W/m 8,7 C 10,4 C 3,2 km/h (1 Bft)
22/07/2012 08:10 10,8 C 89 % 1024,2 hPa 0,0 mm 2,2 km/h (1 Bft) E 90 0 min 0 W/m 9,1 C 10,8 C 4,0 km/h (1 Bft)
22/07/2012 08:20 11,2 C 89 % 1024,3 hPa 0,0 mm 1,4 km/h (1 Bft) E-SE 112 0 min 0 W/m 9,5 C 11,2 C 3,2 km/h (1 Bft)
22/07/2012 08:30 11,8 C 88 % 1024,3 hPa 0,0 mm 0,4 km/h (0 Bft) E-SE 112 0 min 0 W/m 9,9 C 11,8 C 3,2 km/h (1 Bft)
22/07/2012 08:40 12,3 C 87 % 1024,5 hPa 0,0 mm 0,7 km/h (0 Bft) E-SE 112 0 min 0 W/m 10,2 C 12,3 C 0,7 km/h (0 Bft)
22/07/2012 08:50 12,9 C 87 % 1024,4 hPa 0,0 mm 0,0 km/h (0 Bft) E-SE 112 0 min 0 W/m 10,8 C 12,9 C 0,0 km/h (0 Bft)
22/07/2012 09:00 13,8 C 85 % 1024,5 hPa 0,0 mm 0,0 km/h (0 Bft) E-SE 112 0 min 0 W/m 11,3 C 13,8 C 0,0 km/h (0 Bft)
22/07/2012 09:10 14,4 C 84 % 1024,5 hPa 0,0 mm 0,0 km/h (0 Bft) E-SE 112 0 min 0 W/m 11,7 C 14,4 C 0,0 km/h (0 Bft)
22/07/2012 09:20 15,1 C 82 % 1024,5 hPa 0,0 mm 0,0 km/h (0 Bft) E-SE 112 0 min 0 W/m 12,0 C 15,1 C 0,0 km/h (0 Bft)
22/07/2012 09:30 15,7 C 80 % 1024,7 hPa 0,0 mm 0,0 km/h (0 Bft) E-SE 112 0 min 0 W/m 12,3 C 15,7 C 0,0 km/h (0 Bft)
22/07/2012 09:40 16,4 C 79 % 1024,7 hPa 0,0 mm 0,0 km/h (0 Bft) E-SE 112 0 min 0 W/m 12,7 C 16,4 C 0,0 km/h (0 Bft)
22/07/2012 09:50 17,1 C 77 % 1024,7 hPa 0,0 mm 0,0 km/h (0 Bft) E-SE 112 0 min 0 W/m 13,0 C 17,1 C 0,0 km/h (0 Bft)
22/07/2012 10:00 17,8 C 75 % 1024,8 hPa 0,0 mm 0,0 km/h (0 Bft) E-SE 112 0 min 0 W/m 13,3 C 17,8 C 0,0 km/h (0 Bft)
22/07/2012 10:10 18,8 C 73 % 1024,8 hPa 0,0 mm 0,0 km/h (0 Bft) E-SE 112 0 min 0 W/m 13,9 C 18,8 C 0,0 km/h (0 Bft)
22/07/2012 10:20 19,3 C 72 % 1024,9 hPa 0,0 mm 0,7 km/h (0 Bft) E-NE 67 0 min 0 W/m 14,1 C 19,3 C 0,7 km/h (0 Bft)
22/07/2012 10:30 19,9 C 70 % 1024,9 hPa 0,0 mm 2,9 km/h (1 Bft) NE 45 0 min 0 W/m 14,3 C 19,9 C 6,1 km/h (2 Bft)
22/07/2012 10:40 20,6 C 67 % 1024,9 hPa 0,0 mm 1,4 km/h (1 Bft) N-NE 22 0 min 0 W/m 14,3 C 20,6 C 4,3 km/h (1 Bft)
22/07/2012 10:50 21,1 C 63 % 1024,8 hPa 0,0 mm 5,4 km/h (2 Bft) N-NE 22 0 min 0 W/m 13,8 C 21,1 C 5,4 km/h (2 Bft)
22/07/2012 11:00 21,4 C 59 % 1024,8 hPa 0,0 mm 4,0 km/h (1 Bft) NE 45 0 min 0 W/m 13,0 C 21,4 C 8,3 km/h (2 Bft)
22/07/2012 11:10 21,8 C 57 % 1024,9 hPa 0,0 mm 5,8 km/h (2 Bft) N-NE 22 0 min 0 W/m 12,9 C 21,8 C 5,8 km/h (2 Bft)
22/07/2012 11:20 22,2 C 55 % 1024,9 hPa 0,0 mm 5,0 km/h (1 Bft) N 360 0 min 0 W/m 12,7 C 22,2 C 9,7 km/h (2 Bft)
22/07/2012 11:30 22,4 C 55 % 1024,9 hPa 0,0 mm 2,9 km/h (1 Bft) N-NE 22 0 min 0 W/m 12,9 C 22,4 C 4,0 km/h (1 Bft)
22/07/2012 11:40 22,9 C 52 % 1024,8 hPa 0,0 mm 4,7 km/h (1 Bft) N-NE 22 0 min 0 W/m 12,5 C 22,9 C 6,1 km/h (2 Bft)
22/07/2012 11:50 23,3 C 50 % 1024,9 hPa 0,0 mm 5,8 km/h (2 Bft) N 360 0 min 0 W/m 12,3 C 23,3 C 11,2 km/h (2 Bft)
22/07/2012 12:00 23,4 C 48 % 1024,8 hPa 0,0 mm 6,8 km/h (2 Bft) N-NE 22 0 min 0 W/m 11,8 C 23,4 C 6,8 km/h (2 Bft)
22/07/2012 12:10 23,4 C 49 % 1024,7 hPa 0,0 mm 1,8 km/h (1 Bft) N 360 0 min 0 W/m 12,1 C 23,4 C 4,3 km/h (1 Bft)
22/07/2012 12:20 23,6 C 48 % 1024,7 hPa 0,0 mm 6,8 km/h (2 Bft) NE 45 0 min 0 W/m 11,9 C 23,6 C 11,2 km/h (2 Bft)
22/07/2012 12:30 23,6 C 47 % 1024,7 hPa 0,0 mm 7,2 km/h (2 Bft) N-NE 22 0 min 0 W/m 11,6 C 23,6 C 10,4 km/h (2 Bft)
22/07/2012 12:40 23,6 C 46 % 1024,7 hPa 0,0 mm 2,9 km/h (1 Bft) NE 45 0 min 0 W/m 11,3 C 23,6 C 5,8 km/h (2 Bft)
22/07/2012 12:50 23,7 C 45 % 1024,8 hPa 0,0 mm 5,4 km/h (2 Bft) E-NE 67 0 min 0 W/m 11,1 C 23,7 C 10,1 km/h (2 Bft)
22/07/2012 13:00 23,6 C 45 % 1024,8 hPa 0,0 mm 8,3 km/h (2 Bft) NE 45 0 min 0 W/m 11,0 C 23,6 C 16,2 km/h (3 Bft)
22/07/2012 13:10 23,5 C 45 % 1024,7 hPa 0,0 mm 7,9 km/h (2 Bft) NE 45 0 min 0 W/m 10,9 C 23,5 C 14,0 km/h (3 Bft)
22/07/2012 13:20 23,6 C 47 % 1024,7 hPa 0,0 mm 9,4 km/h (2 Bft) NE 45 0 min 0 W/m 11,6 C 23,6 C 9,4 km/h (2 Bft)
22/07/2012 13:30 23,8 C 45 % 1024,7 hPa 0,0 mm 11,5 km/h (2 Bft) N 360 0 min 0 W/m 11,1 C 23,8 C 20,5 km/h (4 Bft)
22/07/2012 13:40 23,8 C 46 % 1024,7 hPa 0,0 mm 6,1 km/h (2 Bft) N 360 0 min 0 W/m 11,5 C 23,8 C 10,4 km/h (2 Bft)
22/07/2012 13:50 24,1 C 46 % 1024,7 hPa 0,0 mm 9,7 km/h (2 Bft) NE 45 0 min 0 W/m 11,7 C 24,1 C 10,4 km/h (2 Bft)
22/07/2012 14:00 24,2 C 45 % 1024,7 hPa 0,0 mm 7,2 km/h (2 Bft) N-NE 22 0 min 0 W/m 11,5 C 24,2 C 7,2 km/h (2 Bft)
22/07/2012 14:10 24,3 C 44 % 1024,5 hPa 0,0 mm 7,2 km/h (2 Bft) N-NE 22 0 min 0 W/m 11,3 C 24,3 C 11,5 km/h (2 Bft)
22/07/2012 14:20 24,3 C 45 % 1024,5 hPa 0,0 mm 4,0 km/h (1 Bft) N-NE 22 0 min 0 W/m 11,6 C 24,3 C 6,8 km/h (2 Bft)
22/07/2012 14:30 24,4 C 44 % 1024,5 hPa 0,0 mm 10,1 km/h (2 Bft) N 360 0 min 0 W/m 11,3 C 24,4 C 11,5 km/h (2 Bft)
22/07/2012 14:40 24,4 C 44 % 1024,5 hPa 0,0 mm 5,8 km/h (2 Bft) N-NO 337 0 min 0 W/m 11,3 C 24,4 C 10,1 km/h (2 Bft)
22/07/2012 14:50 24,6 C 45 % 1024,3 hPa 0,0 mm 5,8 km/h (2 Bft) N-NE 22 0 min 0 W/m 11,9 C 24,6 C 10,8 km/h (2 Bft)
22/07/2012 15:00 24,4 C 43 % 1024,3 hPa 0,0 mm 7,9 km/h (2 Bft) N-NE 22 0 min 0 W/m 11,0 C 24,4 C 13,0 km/h (3 Bft)
22/07/2012 15:10 24,0 C 44 % 1024,2 hPa 0,0 mm 7,6 km/h (2 Bft) N-NE 22 0 min 0 W/m 11,0 C 24,0 C 9,4 km/h (2 Bft)
22/07/2012 15:20 24,0 C 45 % 1024,3 hPa 0,0 mm 8,6 km/h (2 Bft) E-NE 67 0 min 0 W/m 11,3 C 24,0 C 14,8 km/h (3 Bft)
22/07/2012 15:30 24,0 C 44 % 1024,2 hPa 0,0 mm 8,6 km/h (2 Bft) N 360 0 min 0 W/m 11,0 C 24,0 C 8,6 km/h (2 Bft)
22/07/2012 15:40 24,2 C 44 % 1024,1 hPa 0,0 mm 5,4 km/h (2 Bft) E-NE 67 0 min 0 W/m 11,2 C 24,2 C 10,4 km/h (2 Bft)
22/07/2012 15:50 24,4 C 45 % 1024,1 hPa 0,0 mm 6,8 km/h (2 Bft) NE 45 0 min 0 W/m 11,7 C 24,4 C 9,0 km/h (2 Bft)
22/07/2012 16:00 24,5 C 43 % 1024,1 hPa 0,0 mm 8,6 km/h (2 Bft) N 360 0 min 0 W/m 11,1 C 24,5 C 8,6 km/h (2 Bft)
22/07/2012 16:10 24,6 C 44 % 1024,0 hPa 0,0 mm 3,6 km/h (1 Bft) E-NE 67 0 min 0 W/m 11,5 C 24,6 C 3,6 km/h (1 Bft)
22/07/2012 16:20 24,8 C 44 % 1023,9 hPa 0,0 mm 5,0 km/h (1 Bft) E-NE 67 0 min 0 W/m 11,7 C 24,8 C 9,7 km/h (2 Bft)
22/07/2012 16:30 24,8 C 43 % 1024,0 hPa 0,0 mm 5,8 km/h (2 Bft) N-NE 22 0 min 0 W/m 11,4 C 24,8 C 13,3 km/h (3 Bft)
22/07/2012 16:40 24,7 C 43 % 1023,9 hPa 0,0 mm 2,9 km/h (1 Bft) E 90 0 min 0 W/m 11,3 C 24,7 C 6,8 km/h (2 Bft)
22/07/2012 16:50 24,6 C 43 % 1023,9 hPa 0,0 mm 4,0 km/h (1 Bft) N 360 0 min 0 W/m 11,2 C 24,6 C 4,0 km/h (1 Bft)
22/07/2012 17:00 24,6 C 43 % 1023,8 hPa 0,0 mm 4,3 km/h (1 Bft) N-NE 22 0 min 0 W/m 11,2 C 24,6 C 9,7 km/h (2 Bft)
22/07/2012 17:10 24,5 C 43 % 1023,7 hPa 0,0 mm 4,3 km/h (1 Bft) N-NE 22 0 min 0 W/m 11,1 C 24,5 C 10,8 km/h (2 Bft)
22/07/2012 17:20 24,6 C 43 % 1023,6 hPa 0,0 mm 9,0 km/h (2 Bft) NE 45 0 min 0 W/m 11,2 C 24,6 C 9,0 km/h (2 Bft)
22/07/2012 17:30 24,8 C 43 % 1023,5 hPa 0,0 mm 7,2 km/h (2 Bft) N-NE 22 0 min 0 W/m 11,4 C 24,8 C 11,2 km/h (2 Bft)
22/07/2012 17:40 24,9 C 43 % 1023,4 hPa 0,0 mm 6,1 km/h (2 Bft) NE 45 0 min 0 W/m 11,4 C 24,9 C 7,9 km/h (2 Bft)
22/07/2012 17:50 25,1 C 42 % 1023,3 hPa 0,0 mm 4,0 km/h (1 Bft) E-NE 67 0 min 0 W/m 11,3 C 25,1 C 4,3 km/h (1 Bft)
22/07/2012 18:00 25,1 C 42 % 1023,3 hPa 0,0 mm 4,0 km/h (1 Bft) N 360 0 min 0 W/m 11,3 C 25,1 C 4,0 km/h (1 Bft)
22/07/2012 18:10 24,9 C 42 % 1023,3 hPa 0,0 mm 5,4 km/h (2 Bft) N-NE 22 0 min 0 W/m 11,1 C 24,9 C 11,2 km/h (2 Bft)
22/07/2012 18:20 24,7 C 43 % 1023,3 hPa 0,0 mm 5,0 km/h (1 Bft) E 90 0 min 0 W/m 11,3 C 24,7 C 10,8 km/h (2 Bft)
22/07/2012 18:30 24,6 C 42 % 1023,2 hPa 0,0 mm 2,2 km/h (1 Bft) N-NE 22 0 min 0 W/m 10,8 C 24,6 C 4,3 km/h (1 Bft)
22/07/2012 18:40 24,6 C 43 % 1023,2 hPa 0,0 mm 8,6 km/h (2 Bft) N-NE 22 0 min 0 W/m 11,2 C 24,6 C 10,8 km/h (2 Bft)
22/07/2012 18:50 24,6 C 43 % 1023,0 hPa 0,0 mm 5,0 km/h (1 Bft) NE 45 0 min 0 W/m 11,2 C 24,6 C 5,0 km/h (1 Bft)
22/07/2012 19:00 24,6 C 44 % 1023,1 hPa 0,0 mm 3,6 km/h (1 Bft) E-NE 67 0 min 0 W/m 11,5 C 24,6 C 4,3 km/h (1 Bft)
22/07/2012 19:10 24,6 C 42 % 1023,1 hPa 0,0 mm 5,8 km/h (2 Bft) N-NE 22 0 min 0 W/m 10,8 C 24,6 C 5,8 km/h (2 Bft)
22/07/2012 19:20 24,6 C 43 % 1023,0 hPa 0,0 mm 4,7 km/h (1 Bft) E-NE 67 0 min 0 W/m 11,2 C 24,6 C 7,9 km/h (2 Bft)
22/07/2012 19:30 24,5 C 44 % 1023,0 hPa 0,0 mm 3,6 km/h (1 Bft) N-NE 22 0 min 0 W/m 11,4 C 24,5 C 3,6 km/h (1 Bft)
22/07/2012 19:40 24,5 C 43 % 1023,0 hPa 0,0 mm 4,0 km/h (1 Bft) NE 45 0 min 0 W/m 11,1 C 24,5 C 10,8 km/h (2 Bft)
22/07/2012 19:50 24,4 C 44 % 1022,9 hPa 0,0 mm 4,7 km/h (1 Bft) E-NE 67 0 min 0 W/m 11,3 C 24,4 C 10,4 km/h (2 Bft)
22/07/2012 20:00 24,3 C 43 % 1022,9 hPa 0,0 mm 6,5 km/h (2 Bft) E-NE 67 0 min 0 W/m 10,9 C 24,3 C 8,3 km/h (2 Bft)
22/07/2012 20:10 23,9 C 44 % 1022,9 hPa 0,0 mm 2,9 km/h (1 Bft) N-NE 22 0 min 0 W/m 10,9 C 23,9 C 3,2 km/h (1 Bft)
22/07/2012 20:20 23,4 C 45 % 1022,9 hPa 0,0 mm 0,4 km/h (0 Bft) NE 45 0 min 0 W/m 10,8 C 23,4 C 3,2 km/h (1 Bft)
_ Min-Heure 06:20 19:10 20:20 - 10:10 - - - - 06:20 06:20 10:10
Minimum _ 9,2 C 42 % 1022,9 hPa - 0,0 km/h (0 Bft) - - - - 7,2 C 9,2 C 0,0 km/h (0 Bft)
_ Max-Heure 18:00 08:20 11:50 20:20 13:30 - - 20:20 20:20 10:30 18:00 13:30
Maximum _ 25,1 C 89 % 1024,9 hPa 0,0 mm 11,5 km/h
N (2 Bft)
- - 0 min 0 W/m 14,3 C 25,1 C 20,5 km/h
N (4 Bft)
Moyenne _ 17,9 C 65 % 1023,9 hPa #0,0 mm 2,9 km/h (1 Bft) E-SE - #0 min. 0 W/m 10,4 C 17,9 C 4,6 km/h (1 Bft)
Saint Bonnet de Bellac- Haute Vienne - France